STARLINK-34621, 64774

Orbit data source: Space-Track

STARLINK-34621, 64774 is a payload satellite owned by SpaceX/Seattle (US) in LEO that was launched on Tue, 08 Jul 2025 UTC via an FALCON 9 launch vehicle from the Air Force Eastern Test Range (AFETR). Payload-class satellites include a variety of spacecraft equipped with specific instruments for various scientific and technological missions. These include communications satellites like Starlink; space stations such as the ISS; scientific satellites like the Hubble; Earth observation satellites from companies like Planet Labs, Umbra, and HawkEye 360; GPS; miniature CubeSats for education and research; and military/defense satellites.

Loading next visibility...
Identifier
64774, 2025-147V
Orbit
LEO
Country
Flag of USUS
Related business
Manufacturer
SpaceX/Seattle
Mission
Operational spacecraft
Bus & Motor
STARLINK V2MO, Unknown motor
Mass
575 kg wet, ~530 kg dry
Launch date (UTC)
2025-07-08 (2 months ago)
Launch vehicle
FALCON 9
Launch site
Air Force Eastern Test Range (AFETR)
Object type
Payload
Rocket body
Debris
Shape & HBR
Unknown
Radar Cross Section
Large (>1 m²)

Expand to show TLE details & history
Last TLE update: 12 hours ago

TLE from 12 hours ago
0 STARLINK-34621
1 64774U 25147V   25242.77689735  .00039180  00000-0  98342-3 0  9994
2 64774  53.1595  50.8399 0000961  80.3184 279.7930 15.39651921  9437
Epoch: 2025-08-30T18:38Z
TLE epoch observation values (Epoch: 2025-08-30T18:38:43.931Z)
Latitude
0.00005°
Longitude
151.95056°
Altitude
447.93 km
Speed
7.645 km/s
True Right ascension
03h 23m 21s
True Declination
0° 00' 00"
Sunlit
Object was in daylight at epoch
Visualization orbit readout
Latitude
Unknown
Longitude
Unknown
Altitude
Unknown
Speed
Unknown
Apparent Right ascension
Unknown
Apparent Declination
Unknown
Sunlit
N/A
Visualization observer readout
Local Sidereal Time
22:24:35
Azimuth
Unknown
Elevation
Unknown
Doppler factor
Unknown
Orbital elements
Apogee altitude
448.051 km
Perigee altitude
446.739 km
Semi-major axis
6,825.532 km
Eccentricity
0.0001
Inclination
53.1595°
RAAN
50.8399°
Arg. of periapsis
80.3184°
True anomaly
279.78215°
Mean anomaly
279.793°
Eccentric anomaly
279.78757°
Mean motion
3.84892 °/min
Orbital period
93.53 mins
BSTAR
0.00098342
Loading maneuver chart data...
Computing Atmospheric mass density...
Loading historical data...
Loading historical data...
Loading historical data...
Loading historical data...
Loading historical data...
Loading historical data...
Loading historical data...

Documentation

Showing up to 5 results
|